Regional Weather Roundup
Issued by NWS

Home | Current Version | Previous Version | Text Only | Print | Product List | Glossary On
Versions: 1 2 3 4 5 6 7 8 9 10 11 12 13 14 15 16 17 18 19 20 21 22 23 24 25 26 27 28 29 30 31 32 33 34 35 36 37 38 39 40 41 42 43 44 45 46 47 48 49 50
000
ASUS43 KIND 090209
RWRIN

WEATHER ROUNDUP FOR INDIANA
NATIONAL WEATHER SERVICE INDIANAPOLIS IN
900 PM EST THU DEC 08 2016

NOTE: "FAIR" INDICATES FEW OR NO CLOUDS BELOW 12,000 FEET WITH NO
SIGNIFICANT WEATHER AND/OR OBSTRUCTIONS TO VISIBILITY.

* - STATION DOES NOT REPORT WEATHER SUCH AS PRECIPITATION OR FOG.

+ - STATION NOT QUALITY CONTROLLED BY THE NATIONAL WEATHER SERVICE.
    USE DATA WITH CAUTION...ESPECIALLY DEWPOINT AND RELATIVE
    HUMIDITY OBSERVATIONS.

INZ001>003-010>013-019-020-090300-
NORTHWEST INDIANA

CITY           SKY/WX    TMP DP  RH WIND       PRES   REMARKS
GARY /AIRPORT/ CLOUDY    25  16  68 W26       30.40S WCI   9
KNOX *+        CLOUDY    23   0  36 W12       30.39R WCI  12
LA PORTE +     FLURRIES  22  16  78 W8        30.36S WCI  13
MICHIGAN CITY+ CLOUDY    27  19  74 W9G16     30.37R WCI  17
MONTICELLO +   FLURRIES  22  12  67 W14       30.42S WCI   9
RENSSELAER +     N/A     23  19  86 W12G17    30.42R WCI  12
VALPARAISO     FLURRIES  23  15  71 MISG      30.38S

$$

LMZ046-743>745-090300-
SOUTHERN LAKE MICHIGAN

STATION/POSITION TIME  TEMP    WIND        PRES    WAVE
                       AIR SEA DIR/SP/G            HT
                 (UTC) (F)     (DEG/KT/KT) (MB)    (FT)

$$

INZ004-005-014>016-021>024-090300-
NORTH CENTRAL INDIANA

CITY           SKY/WX    TMP DP  RH WIND       PRES   REMARKS
ELKHART        LGT SNOW  21  18  86 SW13      30.32S WCI   9
GOSHEN         FLURRIES  21  14  74 W15       30.34R WCI   8
LOGANSPORT +   FLURRIES  21  16  79 NW8G17    30.43R WCI  12
PERU/GRISSOM   FLURRIES  21  15  78 W14       30.39R WCI   8
ROCHESTER +    FLURRIES  23  19  86 W8        30.39S WCI  14
SOUTH BEND     LGT SNOW  20  17  88 SW12      30.34R FOG     WCI   8
WARSAW +       FLURRIES  21  12  68 W16       30.35S WCI   7

$$

INZ006>009-017-018-025>027-090300-
NORTHEAST INDIANA

CITY           SKY/WX    TMP DP  RH WIND       PRES   REMARKS
ANGOLA *+      CLOUDY    19  16  86 W12       30.28R WCI   7
AUBURN +       FLURRIES  21  14  73 SW10G23   30.32F WCI  10
FORT WAYNE     FLURRIES  21  14  74 W18       30.36S WCI   6
HUNTINGTON +   FLURRIES  20  13  75 W15G22    30.37S WCI   6
KENDALLVILLE + FLURRIES  19  15  82 W18G25    30.30S WCI   4

$$

INZ028-029-035-036-043>045-051>053-090300-
WEST CENTRAL INDIANA

CITY           SKY/WX    TMP DP  RH WIND       PRES   REMARKS
CRAWFORDSVL +  LGT SNOW  19  15  82 W12G18    30.46R WCI   7
GREENCASTLE +  FLURRIES  21  16  79 W7        30.46S WCI  13
LAFAYETTE      FLURRIES  21  15  78 W9        30.45R WCI  11
TERRE HAUTE    CLOUDY    22  12  65 NW15G21   30.51R WCI   9

$$

INZ030>032-037>040-046>048-054>057-064-065-090300-
CENTRAL INDIANA

CITY           SKY/WX    TMP DP  RH WIND       PRES   REMARKS
CP ATTERBURY + CLOUDY    23  14  68 W12G21    30.46R WCI  12
COLUMBUS       FLURRIES  23  16  74 W12       30.47R WCI  12
FISHERS *+     CLOUDY    19  18  93 NW13      30.44R WCI   7
FRANKFORT +    FLURRIES  23  17  77 NW12      30.45R WCI  12
GREENWOOD *+   CLOUDY    23  15  72 W15       30.44R WCI  10
INDIANAPOLIS   FLURRIES  22  13  68 W13G22    30.44R WCI  10
-EAGLE CREEK   FLURRIES  22  14  71 NW13      30.44R WCI  10
KOKOMO +       FLURRIES  20  16  84 W15       30.42R WCI   6
MARION +       FLURRIES  19  15  84 NW17      30.41S WCI   4
MT COMFORT *+  CLOUDY    21  12  68 NW15G21   30.43R WCI   8
SHELBYVILLE    CLOUDY    23  14  68 W13       30.43R WCI  11
ZIONSVILLE +   FLURRIES  19  14  79 W12       30.43S WCI   7

$$

INZ033-034-041-042-049-050-058-059-090300-
EAST CENTRAL INDIANA

CITY           SKY/WX    TMP DP  RH WIND       PRES   REMARKS
MUNCIE         LGT SNOW  21  14  74 NW14G23   30.40R WCI   8

$$

INZ060-061-067>069-081>083-085>088-090300-
SOUTHWEST INDIANA

CITY           SKY/WX    TMP DP  RH WIND       PRES   REMARKS
EVANSVILLE     CLOUDY    27  14  58 NW12G18   30.54R WCI  17
HUNTINGBURG *+ CLOUDY    25  16  68 NW13      30.51R WCI  13
WASHINGTON +   CLOUDY    25  17  70 NW13      30.51R WCI  14

$$

INZ062-063-066-070>080-084-089>092-090300-
SOUTH CENTRAL AND SOUTHEAST INDIANA

CITY           SKY/WX    TMP DP  RH WIND       PRES   REMARKS
BLOOMINGTON    CLOUDY    22  12  65 W13G21    30.47R WCI  10
MADISON *+     CLOUDY    27  14  59 W10G16    30.46R WCI  17
NORTH VERNON + FLURRIES  25  21  86 NW10      30.45R WCI  15
SEYMOUR +      CLOUDY    27  14  59 W10       30.47R WCI  17

$$




USA.gov is the U.S. government's official web portal to all federal, state and local government web resources and services.